Regional Weather Roundup
Issued by NWS Grand Forks, ND

Home | Current Version | Previous Version | Graphics & Text | Print | Product List | Glossary On
Versions: 1 2 3 4 5 6 7 8 9 10 11 12 13 14 15 16 17 18 19 20 21 22 23 24 25 26 27 28 29 30 31 32 33 34 35 36 37 38 39 40 41 42 43 44 45 46 47 48 49 50
000
ASUS43 KFGF 190210
RWRFGF
PRAIRIE TO PINES  WEATHER ROUNDUP
NATIONAL WEATHER SERVICE EASTERN NORTH DAKOTA/GRAND FORKS ND
900 PM CDT FRI AUG 18 2017

 **SATELLITE DATA USED TO AUGMENT SKY COVER AT AUTOMATED STATIONS**
 *****  WEATHER ACROSS EASTERN NORTH DAKOTA  *****

CITY           SKY/WX    TMP DP  RH WIND       PRES   REMARKS
GRAND FORKS    FAIR      70  62  76 SW7       29.83S
GRAND FRKS AFB FAIR      66  60  81 W6        29.85S
DEVILS LAKE    FAIR      74  57  55 SW3       29.88S
FARGO          FAIR      67  60  78 S7        29.87S
WAHPETON ARPT  FAIR      66  57  72 SW5       29.90R
$$

 ***** WEATHER ACROSS CENTRAL AND WESTERN NORTH DAKOTA  *****

CITY           SKY/WX    TMP DP  RH WIND       PRES   REMARKS
BISMARCK       FAIR      67  60  78 S6        29.91S
MINOT          FAIR      75  51  43 CALM      29.85F
JAMESTOWN      FAIR      67  60  78 CALM      29.90S
MINOT AFB        N/A     70  52  53 S5        29.84F
GARRISON         N/A     71  55  56 CALM      29.88S
WILLISTON      FAIR      74  54  49 SE3       29.85F
DICKINSON      FAIR      69  53  56 E9        29.89F
HETTINGER      FAIR      71  51  49 E7        29.93F
$$

 *****  OTHER AIRPORT OBSERVATIONS IN OUR AREA  *****

CITY           SKY/WX    TMP DP  RH WIND       PRES   REMARKS
WALHALLA       FAIR      72  72 100 W5        29.83S
GRAFTON AIRPOR FAIR      68  63  83 W6        29.85S
VALLEY CITY AR   N/A     66  66 100 SW8       29.91S
CANDO          FAIR      66  61  82 SE3       29.89S
CAVALIER APRT  FAIR      68  57  68 W5        29.82S
GWINNER        CLEAR     64  63  94 CALM      29.92R
SHEYENNE NWR     N/A     67  65  94 W2        29.95S
ROLLA          FAIR      63  63 100 CALM      29.88S
 ***** THE ABOVE OBSERVATIONS ARE NON NWS ARE NOT QUALITY
       CONTROLLED AND MAY MIS-REPORT RAIN FOR SNOW...
$$

  *****  WEATHER ACROSS NORTHERN MINNESOTA  *****

CITY           SKY/WX    TMP DP  RH WIND       PRES   REMARKS
FLAG ISLAND    FAIR      72  59  64 CALM      29.80S HAZE
WARROAD        FAIR      66  61  82 W3        29.83R
ROSEAU         FAIR      72  57  60 W3        29.83R
HALLOCK        FAIR      68  57  68 CALM      29.82R
THF RVR FALLS  FAIR      67  56  67 SW5       29.86R
BAUDETTE       FAIR      68  58  70 W5        29.81S
WASKISH        FAIR      66  61  82 S3        29.84S
CROOKSTON      FAIR      70  57  64 CALM      29.85S
STEPHEN NDAWN    N/A     66  57  72 S3          N/A
GREENBUSH NDAW   N/A     64  59  82 SW2         N/A
$$
  *****  WEATHER ACROSS CENTRAL AND WEST MINNESOTA  *****

CITY           SKY/WX    TMP DP  RH WIND       PRES   REMARKS
FOSSTON        FAIR      57  55  94 S5        29.88S
BEMIDJI        FAIR      63  57  80 SW6       29.87S
PARK RAPIDS    FAIR      62  59  90 CALM      29.89R FOG
ELBOW LAKE     FAIR      64  61  89 SW5       29.91S FOG
WADENA         FAIR      63  57  82 W5        29.90R
DETROIT LAKES  FAIR      63  59  88 CALM      29.91S
MOORHEAD       FAIR      64  61  88 CALM      29.88S
FERGUS FALLS   FAIR      66  61  82 CALM      29.89R
MORRIS MN      FAIR      66  63  88 NW5       29.91R
STAPLES        FAIR      63  57  82 CALM      29.90R
$$
  *****  WEATHER ELSEWHERE ACROSS MINNESOTA  *****

CITY           SKY/WX    TMP DP  RH WIND       PRES   REMARKS
DULUTH         FAIR      63  59  87 W6        29.87R
INTRNTL FALLS  FAIR      61  57  87 SW3       29.81S
ELY            FAIR      61  59  94 CALM      29.85S
CLOQUET        FAIR      63  55  77 CALM      29.88R
WHEATON        FAIR      64  59  82 CALM      29.92S
BRAINERD       FAIR      60  60 100 CALM      29.89S FOG
HIBBING        FAIR      57  57 100 CALM      29.86S
ALEXANDRIA     FAIR      61  60  97 SW3       29.93R
SAINT CLOUD    FAIR      61  61 100 S5        29.90R
MINNEAPOLIS    MOCLDY    69  58  67 W5        29.90R
$$

  *****  WEATHER ACROSS SOUTH DAKOTA  *****

CITY           SKY/WX    TMP DP  RH WIND       PRES   REMARKS
SIOUX FALLS    FAIR      68  61  78 NW9       29.93R
BROOKINGS      FAIR      63  59  87 N6        29.94R
WATERTOWN      FAIR      63  60  90 NW3       29.93R
HURON          FAIR      67  58  72 NE5       29.94S
SISSETON         N/A     65  61  87 W5        29.90S
ABERDEEN       FAIR      65  61  87 S5        29.93S
MITCHELL       FAIR      65  60  84 NW7       29.95S
PIERRE         FAIR      69  53  56 E7        29.93S
MOBRIDGE       FAIR      65  59  81 E7        29.91S
RAPID CITY     FAIR      72  47  40 SE3       29.98S
$$

  *****  SOME WEATHER IN NEARBY STATES *****

CITY           SKY/WX    TMP DP  RH WIND       PRES   REMARKS
GLASGOW MT     FAIR      79  35  20 SE10      29.79F
GREAT FALLS MT CLOUDY    78  28  16 SW12      29.88F HAZE
CHEYENNE WY    FAIR      73  44  35 S9        30.19R
SCOTTSBLUFF NE FAIR      76  48  37 S9        30.03S
OMAHA NE       FAIR      80  64  58 CALM      29.89S
DES MOINES IA  FAIR      79  64  60 E6        29.88R
DAVENPORT IA   FAIR      67  62  84 NE6       29.92R
CHICAGO IL     MOCLDY    76  61  59 NW8       29.87R
EAU CLAIRE WI  FAIR      65  62  90 CALM      29.89S
LA CROSSE WI   FAIR      66  62  87 CALM      29.89S
$$

  *****  SOME NATIONAL WEATHER *****

CITY           SKY/WX    TMP DP  RH WIND       PRES   REMARKS
LA GUARDIA NY  LGT RAIN  76  72  87 S8        29.79R
RALEIGH NC     FAIR      87  73  62 SW10      29.89R HX  94
ATLANTA GA     FAIR      79  67  66 W8        30.00R
NEW ORLEANS LA FAIR      84  78  82 S7        30.00R HX  95
OKLAHOMA CITY  FAIR      79  73  82 S6        29.95S
ALBUQUERQUE NM FAIR      88  25  10 S5        30.13R
SALT LAKE CITY FAIR      88  35  15 N9        30.05F
LOS ANGELES CA FAIR      68  63  84 W12       29.93S
BOISE ID       FAIR      88  27  11 N8        29.97F
SEATTLE WA     PTSUNNY   69  55  60 W3        30.13S
$$

*** WEATHER ACROSS MANITOBA...SASKATCHEWAN AND ONTARIO ***
                ***ONTARIO***

CITY           SKY/WX    TMP DP  RH WIND       PRES   REMARKS
GERALDTON      MOCLDY    55  54  94 W2        29.78R
THUNDER BAY    MOCLDY    64  61  88 CALM      29.79R
SIOUX LOOKOUT  CLOUDY    57  55  94 CALM      29.78R
TORONTO        LGT RAIN  68  64  88 W20       29.77R
BIG TROUT LK   MOCLDY    61  54  77 CALM      29.69S
PICKLE LAKE    MOCLDY    63  59  88 S5        29.75R
DRYDEN         MOCLDY    70  54  56 W3        29.79R
KENORA         MOCLDY    70  52  52 NW6       29.81R
$$
                *** MANITOBA***

CITY           SKY/WX    TMP DP  RH WIND       PRES   REMARKS
BRANDON        PTCLDY    70  54  56 W3        29.82F
DAUPHIN        CLEAR     68  55  64 SW7       29.77F
ISLAND LAKE    NOT AVBL
PILOT MOUND      N/A     66  57  72 SW3         N/A
THE PAS        PTCLDY    73  54  49 SW6       29.69S
THOMPSON       MOCLDY    64  57  77 CALM      29.67R
WINNIPEG       PTCLDY    70  52  52 W2        29.80S
LYNN LAKE      CLOUDY    68  54  60 MISG      29.66S
CHURCHILL      CLOUDY    54  52  94 NW8       29.66R
GILLAM         MOCLDY    66  59  77 NW9       29.62S
$$
                ***SASKATCHEWAN***

CITY           SKY/WX    TMP DP  RH WIND       PRES   REMARKS
ESTEVAN        PTCLDY    70  50  49 SE2       29.83F
KINDERSLEY     MOCLDY    73  48  40 SE9       29.67F
LLOYDMINSTER   MOCLDY    66  59  77 E8        29.67F
PRINCE ALBERT  CLOUDY    72  54  53 S6        29.74F
REGINA         PTCLDY    72  43  35 SE9       29.77F
YORKTON        CLEAR     70  55  60 S2        29.80F
N. BATTLEFORD  CLEAR     66  54  63 E10       29.71F
LA RONGE       PTCLDY    72  57  60 SW5       29.69S
SASKATOON      PTCLDY    70  52  52 E9        29.73F
SWIFT CURRENT  MOCLDY    77  43  29 SW9       29.72F
$$
NOTE: THESE ARE AUTOMATED STATIONS WITH LIMITED QUALITY CONTROL
      "FAIR" INDICATES FEW OR NO CLOUDS BELOW 12,000 FEET WITH NO
      SIGNIFICANT WEATHER AND/OR OBSTRUCTIONS TO VISIBILITY.
      SKY/WX - SKY CONDITION AND SIGNIFICANT WEATHER.
      TMP - AIR TEMPERATURE.    DP   - DEWPOINT TEMPERATURE.
      RH  - RELATIVE HUMIDITY.  PRES - PRESSURE.
      HX  - HEAT INDEX.         WCI  - WIND CHILL INDEX.
$




USA.gov is the U.S. government's official web portal to all federal, state and local government web resources and services.